Portada
METAR-TAF:

METAR-TAF

Aeropuertos :

Aeródromo de Teruel

Teruel, España

latitud: 40-24-43N, longitud: 01-13-03W, altitud: 1030 m

Observación

El informe se hizo hace 18 minutos, a las 12:30 UTC
Viento 7 kt del norte-noroeste, variando entre oeste-noroeste y noreste
Temperatura 15°C
Humedad 55%
Presión 1016 hPa
Visibilidad 10 km o más
sin nubes por debajo de 1500 m y sin presencia de cumulonimbus.

METAR: LETL 261230Z AUTO 34007KT 300V040 CAVOK 15/06 Q1016

Hora: 14:48 (12:48 UTC)


TAF: falta

Observaciones y pronósticos meteorológicos de más de 4000 aeropuertos (mensajes METAR y TAF).

Los puntos amarillos y rojos representan las estaciones disponibles.

Ponga el ratón en el punto deseado para ver el nombre de la estación.

Haga clic para ver las observaciones y los pronósticos meteorológicos.

Para cambiar el mapa : haga clic en los botones verdes con una cruz de color negro para hacer un zoom, en el botón verde con un guión para alejar o en las flechas verdes para mapas adyacentes.


METAR-TAF: